STARLINK-32877, 62960

Orbit data source: Space-Track

STARLINK-32877, 62960 is a payload satellite owned by SpaceX/Seattle (US) in LEO that was launched on Tue, 11 Feb 2025 UTC via an FALCON 9 launch vehicle from the Air Force Western Test Range (AFWTR). Payload-class satellites include a variety of spacecraft equipped with specific instruments for various scientific and technological missions. These include communications satellites like Starlink; space stations such as the ISS; scientific satellites like the Hubble; Earth observation satellites from companies like Planet Labs, Umbra, and HawkEye 360; GPS; miniature CubeSats for education and research; and military/defense satellites.

Loading next visibility...
Identifier
62960, 2025-029N
Orbit
LEO
Country
Flag of USUS
Related business
Manufacturer
SpaceX/Seattle
Mission
Operational Commercial Communications
Bus & Motor
STARLINK V2M, Unknown motor
Mass
730 kg wet, ~700 kg dry
Launch date (UTC)
2025-02-11 (1 year ago)
Launch vehicle
FALCON 9
Launch site
Air Force Western Test Range (AFWTR)
Object type
Payload
Rocket body
Debris
Shape & HBR
Box + 2 Pan, 17.7 m
Radar Cross Section
33.884 m², Large (>1 m²)

Expand to show TLE details & history
Last TLE update: 1 day ago

TLE from 1 day ago
0 STARLINK-32877
1 62960U 25029N   26170.84095120  .00014422  00000-0  49803-3 0  9996
2 62960  53.1584 118.2425 0001256  84.8744 275.2400 15.30204616 76936
Epoch: 2026-06-19T20:10Z
TLE epoch observation values (Epoch: 2026-06-19T20:10:58.183Z)
Latitude
-0.00004°
Longitude
-92.5641°
Altitude
476.022 km
Speed
7.629 km/s
True Right ascension
07h 52m 58s
True Declination
0° 00' 00"
Sunlit
Object was in daylight at epoch
Visualization orbit readout
Latitude
Unknown
Longitude
Unknown
Altitude
Unknown
Speed
Unknown
Apparent Right ascension
Unknown
Apparent Declination
Unknown
Sunlit
N/A
Visualization observer readout
Local Sidereal Time
07:17:27
Azimuth
Unknown
Elevation
Unknown
Doppler factor
Unknown
Orbital elements
Apogee altitude
476.319 km
Perigee altitude
474.597 km
Semi-major axis
6,853.595 km
Eccentricity
0.00013
Inclination
53.1584°
RAAN
118.2425°
Arg. of periapsis
84.8744°
True anomaly
275.22567°
Mean anomaly
275.24°
Eccentric anomaly
275.23283°
Mean motion
3.8253 °/min
Orbital period
94.11 mins
BSTAR
0.00049803
Loading maneuver chart data...
Computing Atmospheric mass density...
Loading historical data...
Loading historical data...
Loading historical data...
Loading historical data...
Loading historical data...
Loading historical data...
Loading historical data...

Documentation

Showing up to 5 results
|